Regional Weather Roundup
Issued by NWS

Home | Current Version | Previous Version | Graphics & Text | Print | Product List | Glossary On
Versions: 1 2 3 4 5 6 7 8 9 10 11 12 13 14 15 16 17 18 19 20 21 22 23 24 25 26 27 28 29 30 31 32 33 34 35 36 37 38 39 40 41 42 43 44 45 46 47 48 49 50
000
ASUS43 KIND 201709
RWRIN

WEATHER ROUNDUP FOR INDIANA
NATIONAL WEATHER SERVICE INDIANAPOLIS IN
1200 PM EST SAT JAN 20 2018

NOTE: "FAIR" INDICATES FEW OR NO CLOUDS BELOW 12,000 FEET WITH NO
SIGNIFICANT WEATHER AND/OR OBSTRUCTIONS TO VISIBILITY.

* - STATION DOES NOT REPORT WEATHER SUCH AS PRECIPITATION OR FOG.

+ - STATION NOT QUALITY CONTROLLED BY THE NATIONAL WEATHER SERVICE.
    USE DATA WITH CAUTION...ESPECIALLY DEWPOINT AND RELATIVE
    HUMIDITY OBSERVATIONS.

INZ001>003-010>013-019-020-201800-
NORTHWEST INDIANA

CITY           SKY/WX    TMP DP  RH WIND       PRES   REMARKS
GARY /AIRPORT/ PTSUNNY   41  28  60 SW8       29.96S
KNOX *+        FAIR      36  30  80 SW7       29.99S WCI  30
LA PORTE +     FAIR      35  29  79 SW12      29.97F WCI  26
MICHIGAN CITY+ FAIR      37  30  75 SW9       29.97F WCI  31
MONTICELLO +   FAIR      37  29  71 SW12      30.01S WCI  30
RENSSELAER +   FAIR      37  30  75 SW14      30.00S WCI  29
VALPARAISO     FAIR      37  30  75 S9        29.97F WCI  30

$$

LMZ046-743>745-201800-
SOUTHERN LAKE MICHIGAN

STATION/POSITION TIME  TEMP    WIND        PRES    WAVE
                       AIR SEA DIR/SP/G            HT
                 (UTC) (F)     (DEG/KT/KT) (MB)    (FT)
BURNS HARBOR     1640   39     210/  9/ 13 1015.2R
MICHIGAN CITY    1640   38     190/ 11/ 13   N/A

$$

INZ004-005-014>016-021>024-201800-
NORTH CENTRAL INDIANA

CITY           SKY/WX    TMP DP  RH WIND       PRES   REMARKS
ELKHART        SUNNY     37  28  70 SW9       29.97S WCI  31
GOSHEN         FAIR      35  28  75 SW14G24   29.98R WCI  26
LOGANSPORT +   FAIR      36  30  80 SW14      30.03S WCI  27
PERU/GRISSOM   FAIR      37  32  82 SW13      30.01S WCI  29
ROCHESTER +    FAIR      39  32  75 SW13G18   30.01S WCI  32
SOUTH BEND     FAIR      36  28  73 SW15      29.97S WCI  27
WARSAW +       FAIR      37  30  75 SW8       29.99F WCI  31

$$

INZ006>009-017-018-025>027-201800-
NORTHEAST INDIANA

CITY           SKY/WX    TMP DP  RH WIND       PRES   REMARKS
AUBURN +       FAIR     N/A N/A N/A SW8       30.00S
FORT WAYNE     PTSUNNY   38  29  70 SW15      30.02R WCI  29
HUNTINGTON +   FAIR      37  28  68 SW10      30.01S WCI  30
KENDALLVILLE + FAIR      37  29  72 SW12      29.98S WCI  30

$$

INZ028-029-035-036-043>045-051>053-201800-
WEST CENTRAL INDIANA

CITY           SKY/WX    TMP DP  RH WIND       PRES   REMARKS
CRAWFORDSVL +  FAIR      36  29  75 MISG        N/A
GREENCASTLE +  FAIR      41  28  60 SW6       30.07F
LAFAYETTE      FAIR      38  30  73 SW10G18   30.03S WCI  31
TERRE HAUTE    FAIR      40  27  59 SW9       30.08F WCI  34

$$

INZ030>032-037>040-046>048-054>057-064-065-201800-
CENTRAL INDIANA

CITY           SKY/WX    TMP DP  RH WIND       PRES   REMARKS
COLUMBUS       MOSUNNY   41  25  52 SW12      30.09F
FISHERS *+     FAIR      41  32  70 SW7G16    30.06S
FRANKFORT +    FAIR      40  32  73 SW15      30.05S WCI  32
GREENWOOD *+   FAIR      44  29  56 SW9G16    30.07F
INDIANAPOLIS   FAIR      41  28  60 SW16      30.07S
-EAGLE CREEK   FAIR      41  28  60 SW9G21    30.05F
MARION +       FAIR      36  29  77 SW14      30.03S HAZE    WCI  27
MT COMFORT *+  FAIR      41  32  70 SW13      30.06F
SHELBYVILLE    FAIR      40  27  59 S7        30.07F WCI  35
ZIONSVILLE +   FAIR      37  29  72 SW15      30.05S WCI  28

$$

INZ033-034-041-042-049-050-058-059-201800-
EAST CENTRAL INDIANA

CITY           SKY/WX    TMP DP  RH WIND       PRES   REMARKS
MUNCIE         FAIR      39  26  59 SW12G20   30.03S WCI  32
RICHMOND +     FAIR      37  28  70 SW16      30.07F WCI  28

$$

INZ060-061-067>069-081>083-085>088-201800-
SOUTHWEST INDIANA

CITY           SKY/WX    TMP DP  RH WIND       PRES   REMARKS
EVANSVILLE     FAIR      43  31  62 SW13      30.13F
HUNTINGBURG +  FAIR      44  25  47 S10       30.14F
WASHINGTON +   FAIR      43  22  44 SW12      30.11F

$$

INZ062-063-066-070>080-084-089>092-201800-
SOUTH CENTRAL AND SOUTHEAST INDIANA

CITY           SKY/WX    TMP DP  RH WIND       PRES   REMARKS
BATESVILLE *+    N/A    N/A N/A N/A MISG        N/A
BEDFORD +      FAIR      46  25  42 SW12      30.10F
BLOOMINGTON    PTSUNNY   44  27  51 W14       30.09S
FRENCH LICK *+ FAIR      45  18  33 SW9G16    30.12F
MADISON *+     FAIR      45  21  39 SW10      30.13F
NORTH VERNON + FAIR      39  25  56 SW12      30.11F WCI  32
SEYMOUR +      FAIR      45  27  49 SW9       30.11F

$$





USA.gov is the U.S. government's official web portal to all federal, state and local government web resources and services.